Temperature
21 21 21 21 21 22 23 24 25 25 25 25 25 25 24 23 22 19 18 19 18 18 18 18 18 18 18 18 18 18 18 18 18 18 18 18 17 17 17 17 18 18 18 18 18 18 18 18 18
21 21 21 21 22 23 23 24 24 25 25 25 25 25 24 22 20 19 18 18 18 18 18 18 18 18 18 18 18 18 18 18 18 18 17 17 17 17 17 17 17 17 17 17 17 17 18 18 18
21 21 22 22 23 23 23 24 24 25 25 25 25 24 23 21 20 19 18 18 18 18 18 18 18 18 18 18 18 18 18 18 18 17 17 17 17 17 17 17 17 17 17 17 17 17 17 17 17
21 22 23 23 23 24 24 24 25 25 25 25 25 23 21 20 20 19 18 18 18 18 18 18 18 18 18 18 18 17 17 17 17 17 17 17 17 17 17 17 17 17 17 17 17 17 17 17 17
22 22 23 23 24 24 25 25 25 25 25 25 24 22 20 19 19 19 18 18 18 18 18 18 18 18 18 18 18 17 17 17 17 17 17 17 17 17 17 17 17 17 17 17 17 17 17 17 17
22 23 23 23 24 25 25 25 25 25 25 24 24 22 20 19 19 19 19 18 18 18 18 18 18 18 18 18 18 17 17 17 17 17 17 17 17 17 17 17 17 17 17 17 17 17 17 17 17
23 23 23 24 24 24 24 24 24 24 24 24 23 22 20 19 19 19 18 18 18 18 18 18 18 18 18 17 17 17 17 17 17 17 17 17 17 17 17 17 17 17 17 17 17 17 17 17 17
23 23 24 24 24 24 24 24 24 24 24 23 23 22 20 19 19 19 19 18 18 18 18 18 18 17 17 17 17 17 17 17 17 17 17 17 17 17 17 17 17 17 17 17 17 17 17 17 17
23 23 23 24 24 23 24 24 24 24 23 23 22 21 20 19 19 19 19 18 18 18 18 18 18 17 17 17 17 17 17 17 17 17 17 17 17 16 17 17 17 17 17 17 17 17 17 17 17
24 23 24 25 25 24 24 24 24 24 23 23 21 20 20 19 19 19 19 19 18 18 18 18 18 18 17 17 17 17 17 17 17 17 17 17 16 17 17 17 17 16 16 16 16 16 16 16 16
25 24 24 25 25 24 24 24 24 24 23 23 21 20 19 19 19 19 19 19 19 19 18 18 18 18 18 17 17 17 17 17 17 17 17 17 17 17 17 16 16 16 16 16 16 16 16 16 16
25 25 25 25 24 24 24 24 23 23 23 22 21 20 20 20 19 19 19 19 19 19 19 18 18 18 18 18 17 17 17 17 17 17 17 17 17 17 17 17 16 16 16 16 16 16 16 16 16
25 25 25 24 24 24 24 23 23 22 22 22 21 21 20 20 20 20 19 19 19 19 18 18 18 18 18 18 18 17 17 17 17 17 17 17 17 17 17 17 16 16 16 16 16 16 16 16 16
25 25 25 24 24 24 24 23 23 22 22 22 21 21 20 20 20 20 19 19 19 19 18 18 18 18 18 18 18 17 17 17 17 17 17 17 17 17 17 17 17 16 16 16 16 16 16 16 16
25 24 25 25 24 24 24 23 23 22 22 22 21 21 20 20 20 20 20 19 19 19 18 18 18 18 18 18 18 17 17 17 17 17 17 17 17 17 17 17 17 16 16 16 16 16 16 16 16
25 24 23 24 25 24 23 22 23 23 22 22 22 21 21 20 20 20 20 19 19 19 19 18 18 18 18 18 17 17 17 17 17 17 17 17 17 17 17 17 16 16 16 16 16 16 16 16 15
24 23 24 24 25 25 24 23 23 23 22 22 22 21 21 20 20 20 20 19 19 19 19 18 18 18 18 17 17 17 17 17 17 17 17 17 17 17 17 16 16 16 16 16 16 16 16 16 15
24 24 24 24 25 25 24 23 23 23 23 22 22 22 21 21 20 20 20 19 19 19 19 18 18 18 17 17 17 17 17 17 17 17 17 17 17 16 16 16 16 16 16 16 16 16 15 15 15
24 24 24 25 25 24 24 23 23 24 23 23 22 22 22 21 20 20 19 19 19 19 18 18 18 18 17 17 17 17 17 17 17 17 17 16 16 16 16 16 16 16 16 16 16 15 15 15 15
24 24 24 25 25 24 24 24 24 24 23 23 22 22 22 21 21 20 19 19 18 18 18 18 18 17 17 17 17 17 17 17 16 16 16 16 16 16 16 16 16 16 15 15 15 15 15 15 15
24 24 24 24 24 25 24 23 24 24 24 23 23 22 22 21 21 20 19 19 18 18 18 18 18 17 17 17 17 17 17 16 16 16 16 16 16 16 16 16 16 15 15 15 15 15 15 15 15
24 25 24 24 23 23 24 22 23 24 23 23 23 22 22 21 21 20 19 19 18 18 18 18 18 18 17 17 17 17 16 16 16 16 16 16 16 16 16 16 16 15 15 15 15 15 15 15 15
24 24 24 24 23 23 24 23 23 24 23 23 23 23 22 21 20 20 19 19 19 18 18 18 18 17 17 17 17 17 17 16 16 16 16 16 16 16 16 16 15 15 15 15 15 15 15 15 15
25 24 24 24 23 22 24 24 23 24 24 24 23 23 22 21 20 20 19 19 18 18 18 18 18 17 17 17 17 17 16 16 16 16 16 16 16 16 16 16 16 15 15 15 15 15 15 15 15
24 23 22 22 22 23 25 24 23 25 25 25 24 23 22 21 20 20 19 19 18 18 18 18 17 17 17 17 17 17 16 16 16 16 16 16 16 16 16 16 15 15 15 15 15 15 15 15 15
24 23 22 21 22 23 24 24 24 25 25 24 23 22 22 21 20 20 19 19 18 18 17 17 17 17 17 17 17 17 17 16 16 16 16 16 16 16 16 16 15 15 15 15 15 15 15 15 15
23 23 24 22 22 22 24 24 24 24 24 24 23 22 21 21 20 19 19 18 18 18 17 17 17 17 17 17 17 17 17 17 16 16 16 16 16 15 15 15 15 15 15 15 15 15 15 15 15
24 23 23 22 21 21 23 24 23 23 23 23 23 22 21 20 20 19 18 18 18 17 17 17 17 17 17 17 17 17 16 16 16 16 16 16 16 16 15 15 15 15 15 15 15 15 15 15 14
23 23 23 22 22 21 21 22 24 23 23 23 23 22 21 20 19 19 18 18 17 17 17 17 17 17 17 17 17 16 16 16 16 16 16 16 15 15 15 15 15 15 15 15 15 15 14 14 14
24 23 23 21 22 22 21 22 25 24 24 23 23 22 21 20 19 18 18 18 17 17 17 17 17 17 16 16 16 16 16 16 16 16 16 15 15 15 15 15 15 15 15 15 15 14 14 14 14
Wind_Speed
10 10 6 2 3 2 2 5 7 8 7 9 10 9 13 12 8 7 3 5 8 9 10 11 10 10 10 10 11 11 11 11 11 10 10 11 11 11 11 11 11 11 12 11 11 11 11 11 10
10 6 4 3 3 1 4 6 9 10 7 7 8 10 13 11 10 8 4 6 8 10 11 11 11 10 10 11 11 11 11 11 11 10 10 10 11 11 11 11 11 11 11 11 11 11 11 11 10
10 7 3 3 2 2 4 6 8 9 7 6 6 10 9 7 8 5 6 7 9 10 12 13 12 12 11 11 11 11 11 11 11 10 10 10 11 11 10 10 11 11 11 11 11 11 11 10 9
5 4 3 2 3 7 7 6 6 6 6 7 7 9 8 8 6 7 7 9 10 11 13 13 12 12 12 11 11 11 11 11 11 11 10 10 10 10 10 10 10 10 10 10 10 10 10 10 9
4 3 3 1 2 7 7 6 5 6 6 7 9 10 9 9 9 9 8 9 10 10 12 13 12 12 12 11 11 11 10 10 10 10 10 10 10 10 10 10 10 10 10 10 10 10 9 9 8
3 3 2 1 5 7 6 5 5 7 7 7 8 9 7 7 8 8 8 7 9 10 12 13 12 12 12 11 11 10 10 9 9 9 10 10 10 10 10 10 10 9 9 9 9 9 9 8 7
4 3 3 1 5 5 4 4 4 5 6 6 4 6 7 8 6 6 7 7 7 9 10 10 11 12 12 11 10 9 9 8 8 8 9 9 9 9 10 10 9 9 9 9 9 9 8 8 7
3 4 3 2 4 4 4 3 4 5 5 5 5 6 7 8 6 6 7 7 7 7 7 8 10 11 11 11 10 9 8 8 7 7 8 9 9 10 10 9 9 9 9 8 8 8 7 6 5
3 2 2 4 4 4 4 3 4 3 5 7 8 9 9 11 8 6 6 6 6 6 5 6 7 8 10 10 10 9 8 7 6 7 8 8 7 8 9 10 10 8 8 7 6 6 5 4 3
2 1 3 5 4 4 3 2 3 2 5 6 9 10 9 8 8 6 6 6 5 5 5 4 6 7 7 7 8 7 8 8 6 6 7 6 5 8 9 10 9 7 6 5 4 4 4 3 2
0 1 3 4 5 4 3 2 1 2 3 5 8 9 8 7 6 5 5 5 5 4 4 4 4 5 6 4 5 4 5 5 5 5 5 5 6 6 8 8 8 7 6 4 4 4 2 2 3
1 2 2 3 4 2 1 2 2 4 3 4 7 8 7 6 6 5 4 5 4 4 4 3 3 4 5 5 4 3 3 3 3 4 5 4 2 2 3 4 5 5 3 2 2 2 3 5 7
2 2 2 2 3 2 3 2 2 2 4 5 7 6 6 5 5 5 5 5 4 4 3 3 3 3 3 4 2 3 3 2 3 2 3 5 3 2 2 2 3 3 3 3 3 4 4 5 6
1 1 3 3 2 3 3 2 3 3 4 5 5 6 5 4 3 5 5 4 4 4 3 4 3 4 3 4 2 2 3 3 3 2 2 4 4 2 2 2 2 3 4 4 4 5 4 4 5
2 3 3 4 4 3 1 3 4 5 4 4 5 5 5 4 3 4 4 4 4 4 4 4 4 4 4 3 2 3 3 3 2 2 1 3 4 3 3 2 2 3 5 5 5 6 4 4 4
6 5 4 5 5 4 3 2 3 5 5 4 4 4 5 4 4 3 3 4 4 4 4 4 4 4 4 3 3 2 3 3 2 2 2 2 3 4 4 2 2 4 5 4 3 3 3 3 3
6 6 4 4 6 4 5 3 3 5 5 5 5 5 5 6 5 4 4 4 3 3 4 4 4 4 4 4 3 2 3 3 3 3 3 3 4 4 5 2 2 4 3 3 3 4 3 3 3
2 3 2 3 5 4 4 4 4 6 6 5 5 5 6 6 5 5 4 3 2 2 3 4 4 3 4 4 3 2 3 2 3 3 2 3 2 3 5 2 2 4 3 3 3 3 3 2 2
5 4 3 1 3 2 4 5 6 7 7 6 6 6 5 6 6 5 4 4 3 2 2 4 5 4 4 3 2 3 2 1 2 2 2 3 2 4 5 2 2 3 3 2 3 3 3 2 2
6 5 4 2 1 3 5 6 6 7 8 7 6 5 5 4 6 6 5 5 4 3 2 3 5 5 5 4 3 3 3 2 2 1 2 2 3 3 3 3 3 3 2 2 2 2 2 1 1
5 4 4 4 3 6 6 6 7 9 7 7 6 4 4 5 5 6 5 5 4 4 4 3 4 5 6 6 3 3 2 1 2 2 1 1 2 2 2 3 3 3 3 2 1 2 2 1 1
5 3 5 5 5 5 5 3 4 8 9 8 7 6 5 3 4 5 6 5 5 4 4 4 5 5 6 7 5 4 3 2 3 3 2 2 2 2 2 3 3 3 3 3 2 2 1 1 1
4 5 7 8 8 8 8 5 3 7 7 8 7 7 6 5 4 4 5 5 5 5 4 3 5 4 5 6 6 4 3 3 3 3 3 3 2 2 2 2 3 3 3 3 1 1 1 1 1
6 8 9 8 7 7 7 4 2 3 4 5 6 6 5 5 4 4 4 4 4 4 4 3 3 3 4 5 6 5 4 3 3 3 3 2 2 2 2 2 2 3 3 3 2 2 1 0 0
6 6 3 4 5 4 3 3 2 4 5 5 5 4 4 5 4 4 5 5 4 5 5 4 4 3 4 5 5 6 5 5 4 4 3 3 2 2 2 2 2 2 2 3 3 2 2 1 0
6 6 4 3 3 2 3 2 4 6 6 6 5 4 3 3 4 4 4 4 5 6 6 5 5 5 4 5 4 5 5 4 3 4 3 3 2 2 2 3 3 2 2 2 2 1 1 1 1
5 5 5 6 9 6 2 3 5 6 6 6 5 4 4 3 4 4 3 4 4 5 5 5 4 5 5 5 5 4 5 5 4 4 4 3 3 3 3 3 3 3 2 2 2 2 1 1 1
8 7 4 3 4 5 3 2 3 6 6 5 4 4 4 3 3 4 4 3 4 4 4 4 4 4 4 5 5 4 4 5 5 4 4 4 4 3 3 3 3 3 3 3 3 2 1 2 2
8 7 5 4 5 4 3 1 3 5 4 3 4 5 4 4 3 3 3 3 3 4 4 4 4 4 3 4 4 4 4 4 4 4 4 4 4 4 3 4 4 3 3 4 3 3 2 3 2
7 7 7 5 5 5 5 2 5 5 4 3 3 5 5 4 3 3 3 3 2 2 3 3 3 3 3 3 4 4 4 4 4 4 4 3 3 4 4 3 3 3 3 4 4 3 2 2 2
Wind_Direction
272 254 246 253 259 236 72 61 68 61 56 53 48 59 70 55 52 86 111 87 95 102 104 97 92 90 88 88 88 89 90 91 91 88 87 87 83 80 81 80 79 77 76 75 75 74 74 73 72
281 276 265 243 270 307 72 71 68 62 64 73 62 63 72 66 72 95 106 93 97 97 97 95 95 93 93 94 94 93 95 95 95 91 89 89 86 83 81 79 78 76 73 73 75 75 74 71 70
270 268 262 254 300 54 90 79 81 77 62 65 71 61 54 59 71 94 115 114 100 94 94 97 95 93 92 93 94 96 97 97 96 93 92 91 89 86 84 83 81 78 74 73 75 75 74 71 67
272 261 242 255 49 65 89 93 91 89 68 57 75 75 70 54 76 105 119 112 102 100 99 101 99 99 96 96 97 99 99 99 98 94 94 93 92 91 87 83 82 80 79 77 77 74 73 69 64
250 261 258 231 86 82 74 75 80 84 79 62 71 88 84 73 90 107 109 107 108 108 109 109 105 105 102 100 99 100 100 100 100 97 96 95 93 92 89 85 84 83 82 81 79 76 73 70 62
267 256 267 204 108 94 81 64 69 78 84 75 82 96 91 98 96 102 103 104 109 113 113 115 113 111 106 103 102 102 102 102 101 101 102 100 98 94 91 88 86 85 85 84 83 78 76 73 62
285 284 273 130 102 100 88 61 56 72 70 64 71 95 114 105 97 106 106 101 104 111 119 127 129 123 117 111 108 108 109 111 111 113 113 111 108 106 100 95 92 91 89 89 88 84 82 77 65
297 294 302 83 105 100 91 86 70 60 76 66 54 86 119 126 124 115 113 113 111 112 124 131 136 134 130 124 121 119 120 124 130 131 131 128 127 124 116 108 101 99 97 96 98 96 93 88 75
275 281 350 50 83 102 107 106 87 67 86 77 68 78 113 129 131 126 125 121 112 110 120 128 128 127 130 133 135 139 139 145 151 155 157 155 151 133 121 112 113 110 111 115 119 121 120 114 91
235 352 30 52 72 95 105 103 117 130 104 99 93 92 110 131 140 142 140 134 131 136 135 130 133 133 131 129 140 153 151 159 168 160 161 170 127 111 119 127 131 134 138 143 158 168 172 183 134
253 51 49 60 71 82 102 99 84 110 88 98 114 125 136 145 146 149 146 140 138 133 127 129 131 127 127 130 136 128 132 150 159 144 134 119 114 131 137 144 151 162 173 180 176 194 188 145 99
130 54 58 83 82 85 94 96 64 65 76 87 115 129 143 154 150 157 149 134 137 138 126 120 122 129 137 129 126 137 141 150 147 142 135 119 112 122 126 137 149 156 154 142 118 103 74 67 69
144 120 110 108 119 125 113 102 89 76 90 104 116 132 144 148 153 150 141 137 136 125 132 139 135 123 121 115 135 143 144 137 123 112 123 129 125 123 118 122 116 124 121 102 77 77 63 52 53
100 149 165 160 153 144 135 164 182 149 140 134 134 144 148 150 149 140 149 148 138 139 150 150 154 132 130 130 136 126 123 117 120 120 148 136 134 131 119 106 110 99 90 86 86 83 75 61 58
217 213 200 182 185 171 193 218 197 159 164 156 156 152 149 150 148 153 158 151 147 164 163 160 162 148 148 132 127 115 115 119 114 132 172 116 116 114 108 109 111 108 100 85 78 78 80 82 71
224 225 214 186 188 172 211 238 167 155 173 169 166 156 156 154 168 165 159 151 151 166 160 147 164 147 135 127 126 119 116 114 122 121 80 78 92 86 84 71 86 88 92 93 83 78 71 70 63
221 231 208 180 184 184 208 230 173 167 179 176 176 177 174 170 176 169 167 157 163 160 148 151 165 152 140 126 124 119 111 108 103 95 78 53 74 96 91 72 79 90 92 89 91 77 78 81 83
255 255 234 198 172 198 226 219 191 183 188 191 185 190 187 172 169 161 156 148 140 137 147 146 138 143 128 119 129 106 94 100 95 90 94 79 80 104 99 97 81 82 77 75 90 94 81 79 83
305 310 296 294 134 213 249 242 211 187 184 196 194 192 179 168 159 148 143 133 129 139 145 142 145 152 131 122 123 118 108 102 96 105 105 115 106 98 104 98 84 76 83 100 110 106 98 79 92
279 278 274 257 225 251 255 254 213 189 189 190 199 197 171 166 154 146 152 150 160 159 171 161 160 154 137 130 140 136 130 136 118 103 95 116 124 122 123 119 112 102 93 88 96 103 107 136 143
271 283 295 296 286 256 247 245 211 182 183 183 195 194 172 171 168 162 161 161 166 174 176 180 157 155 141 138 138 135 123 136 122 126 110 102 103 104 110 125 127 141 136 133 151 156 148 193 235
273 296 287 275 270 258 237 251 220 180 181 187 187 187 182 180 175 166 167 170 172 178 180 178 160 161 153 149 153 159 156 155 152 149 157 158 118 111 100 125 141 144 135 144 199 166 165 157 231
295 300 282 271 264 268 252 251 193 178 185 182 181 182 179 177 180 169 167 173 174 167 164 160 157 160 159 160 156 167 160 153 146 143 155 152 133 135 149 157 145 144 143 155 166 123 164 179 181
284 272 263 253 254 255 240 236 195 174 151 149 160 167 165 170 172 164 163 160 159 150 150 155 153 149 150 156 157 173 164 159 152 154 153 145 137 160 168 149 137 148 159 164 160 159 155 194 58
253 268 268 225 219 234 206 223 139 101 97 109 125 144 153 158 161 152 153 155 159 157 159 161 159 159 164 174 175 176 173 173 174 164 155 150 155 167 187 166 161 157 159 161 156 162 162 172 139
251 258 276 286 283 277 210 186 122 104 100 98 103 117 127 139 142 144 152 158 157 159 166 171 178 178 178 186 184 174 169 165 169 163 159 164 166 174 177 171 160 144 144 138 129 144 163 163 160
268 262 280 298 302 294 232 143 135 122 127 121 111 115 127 135 132 133 134 153 158 163 167 171 181 182 187 191 187 185 172 167 169 167 163 164 165 172 164 166 158 153 144 136 139 142 134 102 93
258 283 279 267 292 286 269 224 170 155 145 136 127 120 120 120 128 139 146 152 166 161 166 179 189 193 195 195 190 187 177 170 169 168 167 171 169 167 163 158 155 158 160 152 140 122 120 116 106
224 241 256 270 270 287 302 345 94 105 107 121 136 122 116 118 127 133 136 142 147 156 173 191 190 183 190 196 186 177 172 168 168 164 168 168 164 168 177 169 160 162 163 143 136 148 158 151 148
250 249 255 261 274 277 287 298 103 108 125 129 129 123 125 123 128 129 122 120 134 159 168 182 188 182 191 190 172 178 177 175 170 164 165 173 175 181 179 158 154 163 153 147 148 155 140 135 136
Height
1502 1502 1503 1505 1505 1506 1505 1502 1496 1497 1498 1500 1500 1500 1505 1510 1515 1526 1525 1524 1524 1523 1523 1524 1524 1525 1525 1526 1527 1527 1528 1528 1529 1529 1530 1531 1531 1532 1532 1532 1533 1533 1534 1534 1534 1534 1534 1534 1535
1502 1504 1506 1505 1506 1511 1510 1502 1501 1501 1501 1502 1503 1504 1507 1514 1518 1522 1523 1524 1524 1524 1524 1524 1525 1526 1526 1527 1527 1528 1529 1529 1530 1531 1531 1532 1533 1533 1533 1534 1534 1535 1535 1535 1536 1536 1535 1536 1536
1503 1505 1506 1504 1505 1509 1510 1503 1502 1503 1503 1503 1505 1508 1513 1518 1521 1523 1524 1525 1525 1525 1525 1525 1526 1527 1527 1528 1528 1529 1530 1531 1531 1532 1533 1534 1534 1534 1535 1535 1536 1536 1537 1537 1537 1537 1537 1537 1537
1506 1506 1505 1505 1506 1503 1502 1503 1503 1504 1505 1505 1507 1512 1518 1522 1523 1524 1525 1526 1526 1526 1526 1526 1527 1528 1528 1529 1530 1531 1531 1532 1533 1534 1534 1535 1535 1536 1536 1537 1537 1537 1538 1538 1538 1538 1538 1539 1539
1506 1506 1505 1506 1504 1502 1501 1503 1503 1504 1506 1508 1510 1515 1521 1524 1524 1525 1526 1527 1527 1527 1527 1528 1528 1529 1530 1530 1531 1532 1532 1534 1534 1535 1536 1536 1537 1537 1538 1538 1538 1539 1539 1539 1540 1540 1540 1540 1540
1507 1504 1508 1510 1505 1503 1504 1505 1505 1506 1508 1510 1512 1516 1523 1525 1525 1526 1527 1528 1528 1528 1529 1529 1530 1530 1531 1532 1532 1533 1534 1535 1536 1536 1537 1538 1538 1538 1539 1539 1540 1540 1540 1541 1541 1541 1541 1542 1542
1508 1505 1506 1505 1506 1507 1506 1507 1508 1508 1510 1512 1514 1517 1523 1525 1526 1527 1528 1529 1530 1530 1530 1531 1531 1532 1532 1533 1534 1534 1535 1536 1537 1538 1539 1539 1540 1540 1540 1540 1541 1541 1542 1542 1543 1543 1543 1543 1544
1507 1506 1504 1503 1507 1509 1508 1509 1510 1511 1512 1514 1515 1518 1523 1525 1526 1528 1529 1530 1531 1531 1532 1532 1533 1533 1533 1534 1535 1536 1537 1538 1539 1539 1540 1541 1541 1542 1542 1542 1542 1543 1543 1544 1544 1545 1545 1545 1545
1507 1509 1509 1506 1508 1509 1508 1510 1512 1513 1514 1516 1517 1520 1522 1525 1526 1528 1529 1531 1532 1532 1533 1534 1534 1534 1535 1536 1536 1537 1538 1539 1540 1541 1542 1542 1543 1543 1543 1544 1544 1545 1545 1546 1546 1546 1546 1547 1547
1507 1511 1508 1505 1506 1508 1509 1510 1512 1513 1515 1517 1520 1522 1523 1525 1527 1528 1530 1531 1532 1533 1534 1534 1535 1535 1536 1537 1538 1538 1540 1540 1541 1542 1543 1544 1545 1545 1545 1546 1546 1546 1547 1547 1548 1548 1548 1548 1548
1506 1508 1506 1506 1507 1509 1510 1512 1513 1514 1516 1518 1520 1523 1524 1526 1527 1528 1530 1531 1532 1533 1534 1535 1536 1537 1537 1538 1539 1540 1541 1542 1543 1544 1545 1545 1546 1546 1546 1547 1547 1548 1548 1549 1549 1549 1550 1550 1550
1506 1507 1507 1508 1510 1511 1512 1513 1514 1515 1518 1519 1520 1522 1524 1526 1527 1528 1530 1531 1532 1533 1534 1535 1536 1537 1537 1538 1539 1540 1541 1542 1543 1544 1545 1546 1547 1547 1548 1548 1548 1549 1550 1550 1550 1551 1551 1551 1552
1507 1508 1509 1510 1511 1512 1513 1514 1515 1517 1518 1520 1521 1523 1525 1526 1527 1528 1530 1531 1532 1533 1534 1535 1536 1537 1538 1538 1540 1541 1542 1543 1544 1545 1546 1547 1547 1548 1548 1549 1550 1550 1551 1551 1552 1552 1552 1552 1553
1507 1508 1509 1510 1511 1512 1513 1515 1516 1517 1519 1520 1521 1523 1525 1526 1527 1528 1529 1530 1531 1532 1533 1535 1536 1537 1538 1539 1540 1541 1542 1543 1544 1545 1546 1547 1548 1549 1549 1550 1551 1551 1552 1552 1552 1553 1553 1553 1553
1508 1509 1509 1509 1510 1511 1513 1515 1514 1516 1518 1519 1521 1522 1524 1525 1527 1528 1529 1529 1531 1532 1533 1534 1535 1536 1538 1539 1540 1541 1542 1543 1544 1546 1547 1548 1549 1549 1550 1551 1551 1552 1552 1553 1553 1553 1554 1554 1554
1507 1509 1513 1508 1508 1510 1516 1519 1513 1515 1517 1518 1520 1522 1523 1525 1526 1527 1528 1529 1530 1531 1532 1533 1534 1535 1537 1538 1540 1541 1542 1543 1544 1546 1547 1548 1549 1549 1550 1551 1552 1552 1553 1553 1553 1554 1554 1554 1555
1509 1512 1511 1508 1505 1507 1511 1515 1512 1513 1515 1517 1519 1521 1522 1524 1525 1526 1527 1528 1529 1530 1531 1532 1533 1535 1536 1537 1539 1541 1542 1543 1544 1545 1546 1547 1548 1549 1550 1551 1552 1552 1553 1553 1554 1554 1555 1555 1555
1512 1509 1508 1508 1504 1506 1510 1511 1510 1512 1514 1515 1517 1519 1520 1522 1523 1525 1526 1527 1528 1529 1530 1531 1532 1534 1535 1537 1539 1540 1542 1543 1544 1545 1546 1546 1547 1549 1549 1551 1551 1552 1553 1553 1554 1555 1556 1556 1557
1505 1507 1509 1505 1502 1506 1509 1509 1508 1509 1512 1514 1515 1517 1518 1520 1522 1523 1525 1526 1527 1528 1529 1530 1531 1533 1534 1536 1538 1539 1541 1542 1543 1544 1545 1546 1547 1548 1549 1550 1551 1552 1552 1553 1554 1555 1556 1557 1557
1505 1509 1508 1505 1502 1505 1507 1506 1504 1506 1508 1511 1513 1515 1517 1519 1520 1522 1523 1524 1526 1527 1528 1529 1530 1532 1533 1535 1537 1539 1540 1541 1543 1544 1545 1546 1547 1548 1549 1550 1551 1551 1552 1553 1554 1555 1556 1557 1557
1507 1508 1508 1508 1505 1503 1507 1509 1503 1502 1505 1508 1511 1513 1515 1517 1518 1520 1521 1523 1524 1525 1527 1528 1529 1531 1532 1534 1536 1538 1539 1541 1542 1543 1544 1545 1546 1547 1548 1549 1550 1551 1552 1553 1554 1555 1556 1556 1557
1510 1504 1505 1507 1512 1511 1506 1518 1505 1499 1503 1505 1508 1510 1513 1515 1517 1518 1519 1521 1522 1524 1525 1527 1528 1530 1531 1533 1535 1537 1538 1539 1541 1542 1543 1545 1546 1546 1548 1549 1550 1551 1551 1552 1553 1554 1555 1556 1556
1506 1503 1504 1504 1508 1511 1504 1511 1506 1497 1501 1502 1504 1507 1510 1513 1515 1516 1518 1519 1521 1522 1524 1526 1527 1529 1530 1532 1534 1536 1537 1539 1540 1541 1542 1544 1545 1546 1547 1548 1549 1550 1551 1552 1552 1553 1554 1555 1556
1503 1504 1502 1502 1507 1517 1503 1508 1509 1498 1497 1498 1501 1505 1508 1510 1513 1514 1516 1518 1519 1521 1522 1524 1526 1528 1529 1531 1532 1534 1536 1538 1539 1540 1541 1542 1544 1545 1546 1547 1548 1549 1550 1551 1552 1553 1553 1554 1555
1504 1511 1519 1519 1520 1514 1495 1502 1504 1493 1492 1496 1500 1503 1506 1508 1510 1512 1514 1516 1517 1519 1521 1523 1525 1526 1528 1530 1531 1533 1535 1537 1538 1539 1540 1541 1543 1544 1545 1546 1547 1548 1549 1550 1551 1552 1553 1553 1553
1504 1508 1521 1528 1520 1508 1496 1502 1498 1490 1493 1496 1500 1503 1505 1507 1509 1511 1513 1514 1516 1518 1519 1521 1523 1525 1526 1528 1530 1532 1534 1535 1537 1538 1539 1540 1542 1543 1544 1545 1546 1547 1548 1549 1550 1551 1551 1552 1552
1505 1505 1503 1512 1512 1513 1502 1496 1493 1491 1494 1497 1500 1502 1505 1507 1508 1510 1512 1513 1515 1516 1518 1520 1521 1523 1524 1526 1528 1530 1532 1533 1535 1536 1538 1539 1541 1542 1543 1544 1545 1546 1547 1548 1549 1549 1550 1551 1551
1503 1503 1506 1514 1523 1523 1508 1501 1501 1495 1495 1496 1499 1502 1504 1506 1508 1509 1510 1512 1513 1514 1516 1518 1520 1521 1523 1525 1527 1528 1530 1532 1533 1535 1536 1537 1539 1541 1542 1542 1543 1545 1546 1546 1547 1548 1549 1550 1550
1503 1505 1505 1508 1510 1521 1521 1511 1489 1492 1493 1496 1498 1501 1503 1506 1507 1508 1509 1511 1512 1513 1515 1516 1518 1520 1521 1523 1525 1526 1528 1530 1532 1533 1534 1536 1538 1539 1540 1541 1542 1543 1544 1545 1546 1547 1548 1548 1549
1497 1500 1503 1515 1512 1508 1515 1510 1488 1490 1492 1495 1497 1500 1502 1505 1506 1508 1509 1510 1511 1512 1513 1515 1516 1518 1519 1521 1523 1525 1526 1528 1530 1531 1533 1534 1536 1537 1539 1540 1540 1542 1543 1543 1545 1546 1546 1547 1547